Ana Sayfa
METAR-TAF:

METAR-TAF

Havaalanları :

Watauga County Hospital Heliport

Boone, Kuzey Carolina, Amerika Birleşik Devletleri

Enlem: 36-12N, Boylam: 081-39W, yükseklik: 959 m

Güncel hava durumu gözlemi

Rapor saat 05:55 UTC de 6 dakika önce yapıldı.
Sakin rüzgar
Sıcaklık 9°C
Nem 93%
Basınç 1014 hPa
Görüş mesafesi: 16.1 km

METAR: KTNB 100555Z AUTO 00000KT 10SM 09/08 A2995 RMK AO2 T00910080 10120 20086

Saat: 01:01 (06:01 UTC)


TAF: eksik

4.000'den fazla havaalanı için hava durumu gözlemleri ve tahminleri (METAR ve TAF raporları).

Kullanılabilir istasyonlar harita üzerinde sarı ve kırmızı noktalarla gösterilir.

İstasyonun adını görmek için fareyi noktanın üzerinde gezdirin.

Sonrasında hava gözlem ve tahminlerini görmek için tıklayın.

Haritayı değiştirmek için: yaklaştırmak için siyah artı işaretli yeşil düğmeye ve uzaklaştırmak için de eksi işaretli düğmeye hızla tıklayın; bitişik haritalar için yeşil okları kullanın.


METAR-TAF: